datetime,flow
1976-06-01,1600.0
1976-06-02,1700.0
1976-06-03,1800.0
1976-06-04,1980.0
1976-06-05,2470.0
1976-06-06,2530.0
1976-06-07,2000.0
1976-06-08,1870.0
1976-06-09,1900.0
1976-06-10,1870.0
1976-06-11,1740.0
1976-06-12,1550.0
1976-06-13,1440.0
1976-06-14,1250.0
1976-06-15,978.0
1976-06-16,847.0
1976-06-17,870.0
1976-06-18,891.0
1976-06-19,781.0
1976-06-20,724.0
1976-06-21,829.0
1976-06-22,944.0
1976-06-23,1040.0
1976-06-24,892.0
1976-06-25,745.0
1976-06-26,677.0
1976-06-27,639.0
1976-06-28,620.0
1976-06-29,637.0
1976-06-30,646.0
1976-07-01,614.0
1976-07-02,633.0
1976-07-03,622.0
1976-07-04,580.0
1976-07-05,545.0
1976-07-06,514.0
1976-07-07,456.0
1976-07-08,513.0
1976-07-09,450.0
1976-07-10,718.0
1976-07-11,734.0
1976-07-12,481.0
1976-07-13,418.0
1976-07-14,406.0
1976-07-15,378.0
1976-07-16,281.0
1976-07-17,293.0
1976-07-18,399.0
1976-07-19,441.0
1976-07-20,649.0
1976-07-21,423.0
1976-07-22,364.0
1976-07-23,323.0
1976-07-24,328.0
1976-07-25,342.0
1976-07-26,459.0
1976-07-27,515.0
1976-07-28,690.0
1976-07-29,443.0
1976-07-30,406.0
1976-07-31,417.0
1976-08-01,500.0
1976-08-02,641.0
1976-08-03,546.0
1976-08-04,548.0
1976-08-05,598.0
1976-08-06,450.0
1976-08-07,411.0
1976-08-08,541.0
1976-08-09,562.0
1976-08-10,547.0
1976-08-11,506.0
1976-08-12,524.0
1976-08-13,403.0
1976-08-14,414.0
1976-08-15,444.0
1976-08-16,438.0
1976-08-17,403.0
1976-08-18,412.0
1976-08-19,429.0
1976-08-20,412.0
1976-08-21,388.0
1976-08-22,383.0
1976-08-23,400.0
1976-08-24,402.0
1976-08-25,364.0
1976-08-26,423.0
1976-08-27,362.0
1976-08-28,370.0
1976-08-29,356.0
1976-08-30,350.0
1976-08-31,367.0
1976-09-01,363.0
1976-09-02,370.0
1976-09-03,383.0
1976-09-04,380.0
1976-09-05,399.0
1976-09-06,428.0
1976-09-07,553.0
1976-09-08,542.0
1976-09-09,534.0
1976-09-10,576.0
1976-09-11,585.0
1976-09-12,583.0
1976-09-13,573.0
1976-09-14,538.0
1976-09-15,503.0
1976-09-16,659.0
1976-09-17,678.0
1976-09-18,702.0
1976-09-19,730.0
1976-09-20,710.0
1976-09-21,518.0
1976-09-22,470.0
1976-09-23,475.0
1976-09-24,516.0
1976-09-25,584.0
1976-09-26,654.0
1976-09-27,713.0
1976-09-28,707.0
1976-09-29,699.0
1976-09-30,640.0
1976-10-01,614.0
1976-10-02,614.0
1976-10-03,670.0
1976-10-04,656.0
1976-10-05,663.0
1976-10-06,642.0
1976-10-07,624.0
1976-10-08,627.0
1976-10-09,697.0
1976-10-10,1180.0
1976-10-11,813.0
1976-10-12,619.0
1976-10-13,606.0
1976-10-14,605.0
1976-10-15,601.0
1976-10-16,599.0
1976-10-17,600.0
1976-10-18,605.0
1976-10-19,611.0
1976-10-20,616.0
1976-10-21,628.0
1976-10-22,642.0
1976-10-23,659.0
1976-10-24,633.0
1976-10-25,636.0
1976-10-26,640.0
1976-10-27,662.0
1976-10-28,710.0
1976-10-29,1330.0
1976-10-30,697.0
1976-10-31,639.0
1976-11-01,1070.0
1976-11-02,1130.0
1976-11-03,1360.0
1976-11-04,1330.0
1976-11-05,1490.0
1976-11-06,1380.0
1976-11-07,1250.0
1976-11-08,1130.0
1976-11-09,1250.0
1976-11-10,1340.0
1976-11-11,1450.0
1976-11-12,1390.0
1976-11-13,1430.0
1976-11-14,1330.0
1976-11-15,1380.0
1976-11-16,1350.0
1976-11-17,1340.0
1976-11-18,1270.0
1976-11-19,1140.0
1976-11-20,1210.0
1976-11-21,1130.0
1976-11-22,1080.0
1976-11-23,1220.0
1976-11-24,1410.0
1976-11-25,1330.0
1976-11-26,1160.0
1976-11-27,1360.0
1976-11-28,1410.0
1976-11-29,1310.0
1976-11-30,1410.0
1976-12-01,1360.0
1976-12-02,1550.0
1976-12-03,1750.0
1976-12-04,1600.0
1976-12-05,1670.0
1976-12-06,1630.0
1976-12-07,1680.0
1976-12-08,1580.0
1976-12-09,1770.0
1976-12-10,1820.0
1976-12-11,1740.0
1976-12-12,1750.0
1976-12-13,1590.0
1976-12-14,1770.0
1976-12-15,1700.0
1976-12-16,1480.0
1976-12-17,1580.0
1976-12-18,1480.0
1976-12-19,1460.0
1976-12-20,1410.0
1976-12-21,1380.0
1976-12-22,1380.0
1976-12-23,1280.0
1976-12-24,1420.0
1976-12-25,1250.0
1976-12-26,853.0
1976-12-27,1480.0
1976-12-28,1570.0
1976-12-29,1580.0
1976-12-30,1810.0
1976-12-31,1790.0
1977-01-01,1510.0
1977-01-02,1350.0
1977-01-03,1450.0
1977-01-04,1480.0
1977-01-05,1660.0
1977-01-06,1680.0
1977-01-07,1430.0
1977-01-08,1680.0
1977-01-09,1260.0
1977-01-10,1500.0
1977-01-11,1470.0
1977-01-12,1580.0
1977-01-13,1550.0
1977-01-14,1580.0
1977-01-15,1540.0
1977-01-16,1530.0
1977-01-17,1280.0
1977-01-18,1580.0
1977-01-19,1530.0
1977-01-20,1640.0
1977-01-21,1530.0
1977-01-22,1540.0
1977-01-23,1320.0
1977-01-24,1290.0
1977-01-25,1450.0
1977-01-26,1630.0
1977-01-27,1490.0
1977-01-28,1450.0
1977-01-29,1180.0
1977-01-30,1400.0
1977-01-31,1500.0
1977-02-01,1470.0
1977-02-02,1520.0
1977-02-03,1360.0
1977-02-04,1500.0
1977-02-05,1080.0
1977-02-06,1340.0
1977-02-07,975.0
1977-02-08,897.0
1977-02-09,895.0
1977-02-10,869.0
1977-02-11,864.0
1977-02-12,862.0
1977-02-13,816.0
1977-02-14,990.0
1977-02-15,778.0
1977-02-16,771.0
1977-02-17,786.0
1977-02-18,777.0
1977-02-19,775.0
1977-02-20,771.0
1977-02-21,769.0
1977-02-22,814.0
1977-02-23,776.0
1977-02-24,670.0
1977-02-25,654.0
1977-02-26,614.0
1977-02-27,603.0
1977-02-28,632.0
1977-03-01,720.0
1977-03-02,746.0
1977-03-03,718.0
1977-03-04,719.0
1977-03-05,710.0
1977-03-06,714.0
1977-03-07,720.0
1977-03-08,635.0
1977-03-09,623.0
1977-03-10,657.0
1977-03-11,635.0
1977-03-12,718.0
1977-03-13,731.0
1977-03-14,698.0
1977-03-15,315.0
1977-03-16,374.0
1977-03-17,433.0
1977-03-18,461.0
1977-03-19,462.0
1977-03-20,487.0
1977-03-21,427.0
1977-03-22,399.0
1977-03-23,405.0
1977-03-24,419.0
1977-03-25,429.0
1977-03-26,431.0
1977-03-27,430.0
1977-03-28,433.0
1977-03-29,403.0
1977-03-30,370.0
1977-03-31,413.0
1977-04-01,457.0
1977-04-02,466.0
1977-04-03,460.0
1977-04-04,436.0
1977-04-05,415.0
1977-04-06,390.0
1977-04-07,343.0
1977-04-08,322.0
1977-04-09,328.0
1977-04-10,396.0
1977-04-11,472.0
1977-04-12,465.0
1977-04-13,363.0
1977-04-14,313.0
1977-04-15,296.0
1977-04-16,301.0
1977-04-17,322.0
1977-04-18,386.0
1977-04-19,396.0
1977-04-20,375.0
1977-04-21,319.0
1977-04-22,291.0
1977-04-23,297.0
1977-04-24,282.0
1977-04-25,321.0
1977-04-26,326.0
1977-04-27,341.0
1977-04-28,358.0
1977-04-29,386.0
1977-04-30,361.0
1977-05-01,363.0
1977-05-02,409.0
1977-05-03,399.0
1977-05-04,470.0
1977-05-05,387.0
1977-05-06,365.0
1977-05-07,380.0
1977-05-08,427.0
1977-05-09,635.0
1977-05-10,729.0
1977-05-11,657.0
1977-05-12,572.0
1977-05-13,439.0
1977-05-14,440.0
1977-05-15,502.0
1977-05-16,466.0
1977-05-17,403.0
1977-05-18,382.0
1977-05-19,379.0
1977-05-20,356.0
1977-05-21,344.0
1977-05-22,318.0
1977-05-23,304.0
1977-05-24,306.0
1977-05-25,352.0
1977-05-26,348.0
1977-05-27,336.0
1977-05-28,306.0
1977-05-29,299.0
1977-05-30,316.0
1977-05-31,353.0
1977-06-01,407.0
1977-06-02,464.0
1977-06-03,498.0
1977-06-04,506.0
1977-06-05,472.0
1977-06-06,409.0
1977-06-07,402.0
1977-06-08,463.0
1977-06-09,504.0
1977-06-10,404.0
1977-06-11,345.0
1977-06-12,327.0
1977-06-13,303.0
1977-06-14,272.0
1977-06-15,244.0
1977-06-16,240.0
1977-06-17,232.0
1977-06-18,228.0
1977-06-19,230.0
1977-06-20,229.0
1977-06-21,210.0
1977-06-22,227.0
1977-06-23,249.0
1977-06-24,277.0
1977-06-25,313.0
1977-06-26,317.0
1977-06-27,306.0
1977-06-28,297.0
1977-06-29,288.0
1977-06-30,271.0
1977-07-01,245.0
1977-07-02,255.0
1977-07-03,268.0
1977-07-04,267.0
1977-07-05,304.0
1977-07-06,308.0
1977-07-07,309.0
1977-07-08,289.0
1977-07-09,262.0
1977-07-10,260.0
1977-07-11,265.0
1977-07-12,260.0
1977-07-13,244.0
1977-07-14,246.0
1977-07-15,250.0
1977-07-16,253.0
1977-07-17,253.0
1977-07-18,270.0
1977-07-19,266.0
1977-07-20,300.0
1977-07-21,291.0
1977-07-22,310.0
1977-07-23,307.0
1977-07-24,327.0
1977-07-25,323.0
1977-07-26,297.0
1977-07-27,261.0
1977-07-28,257.0
1977-07-29,262.0
1977-07-30,257.0
1977-07-31,249.0
1977-08-01,245.0
1977-08-02,228.0
1977-08-03,230.0
1977-08-04,236.0
1977-08-05,232.0
1977-08-06,239.0
1977-08-07,234.0
1977-08-08,227.0
1977-08-09,220.0
1977-08-10,218.0
1977-08-11,208.0
1977-08-12,211.0
1977-08-13,217.0
1977-08-14,223.0
1977-08-15,213.0
1977-08-16,213.0
1977-08-17,239.0
1977-08-18,358.0
1977-08-19,320.0
1977-08-20,334.0
1977-08-21,345.0
1977-08-22,318.0
1977-08-23,295.0
1977-08-24,358.0
1977-08-25,343.0
1977-08-26,322.0
1977-08-27,317.0
1977-08-28,341.0
1977-08-29,298.0
1977-08-30,275.0
1977-08-31,275.0
1977-09-01,289.0
1977-09-02,356.0
1977-09-03,306.0
1977-09-04,293.0
1977-09-05,313.0
1977-09-06,304.0
1977-09-07,319.0
1977-09-08,332.0
1977-09-09,330.0
1977-09-10,321.0
1977-09-11,313.0
1977-09-12,345.0
1977-09-13,443.0
1977-09-14,399.0
1977-09-15,342.0
1977-09-16,348.0
1977-09-17,339.0
1977-09-18,324.0
1977-09-19,317.0
1977-09-20,314.0
1977-09-21,334.0
1977-09-22,355.0
1977-09-23,346.0
1977-09-24,343.0
1977-09-25,338.0
1977-09-26,331.0
1977-09-27,341.0
1977-09-28,336.0
1977-09-29,342.0
1977-09-30,341.0
1977-10-01,337.0
1977-10-02,337.0
1977-10-03,341.0
1977-10-04,338.0
1977-10-05,333.0
1977-10-06,341.0
1977-10-07,636.0
1977-10-08,553.0
1977-10-09,457.0
1977-10-10,426.0
1977-10-11,405.0
1977-10-12,408.0
1977-10-13,422.0
1977-10-14,435.0
1977-10-15,421.0
1977-10-16,396.0
1977-10-17,387.0
1977-10-18,378.0
1977-10-19,380.0
1977-10-20,386.0
1977-10-21,381.0
1977-10-22,382.0
1977-10-23,392.0
1977-10-24,402.0
1977-10-25,394.0
1977-10-26,390.0
1977-10-27,380.0
1977-10-28,380.0
1977-10-29,370.0
1977-10-30,380.0
1977-10-31,380.0
1977-11-01,430.0
1977-11-02,440.0
1977-11-03,430.0
1977-11-04,420.0
1977-11-05,420.0
1977-11-06,430.0
1977-11-07,450.0
1977-11-08,510.0
1977-11-09,480.0
1977-11-10,470.0
1977-11-11,480.0
1977-11-12,500.0
1977-11-13,500.0
1977-11-14,480.0
1977-11-15,480.0
1977-11-16,470.0
1977-11-17,450.0
1977-11-18,450.0
1977-11-19,460.0
1977-11-20,460.0
1977-11-21,450.0
1977-11-22,470.0
1977-11-23,490.0
1977-11-24,480.0
1977-11-25,470.0
1977-11-26,480.0
1977-11-27,480.0
1977-11-28,500.0
1977-11-29,500.0
1977-11-30,480.0
1977-12-01,480.0
1977-12-02,470.0
1977-12-03,480.0
1977-12-04,500.0
1977-12-05,480.0
1977-12-06,480.0
1977-12-07,460.0
1977-12-08,449.0
1977-12-09,437.0
1977-12-10,427.0
1977-12-11,437.0
1977-12-12,435.0
1977-12-13,432.0
1977-12-14,429.0
1977-12-15,431.0
1977-12-16,446.0
1977-12-17,423.0
1977-12-18,417.0
1977-12-19,403.0
1977-12-20,400.0
1977-12-21,394.0
1977-12-22,401.0
1977-12-23,440.0
1977-12-24,450.0
1977-12-25,448.0
1977-12-26,424.0
1977-12-27,425.0
1977-12-28,434.0
1977-12-29,434.0
1977-12-30,438.0
1977-12-31,444.0
1978-01-01,421.0
1978-01-02,402.0
1978-01-03,415.0
1978-01-04,428.0
1978-01-05,434.0
1978-01-06,438.0
1978-01-07,379.0
1978-01-08,303.0
1978-01-09,299.0
1978-01-10,532.0
1978-01-11,606.0
1978-01-12,613.0
1978-01-13,605.0
1978-01-14,592.0
1978-01-15,614.0
1978-01-16,656.0
1978-01-17,624.0
1978-01-18,615.0
1978-01-19,605.0
1978-01-20,613.0
1978-01-21,615.0
1978-01-22,609.0
1978-01-23,602.0
1978-01-24,620.0
1978-01-25,588.0
1978-01-26,594.0
1978-01-27,609.0
1978-01-28,592.0
1978-01-29,591.0
1978-01-30,589.0
1978-01-31,611.0
1978-02-01,614.0
1978-02-02,596.0
1978-02-03,592.0
1978-02-04,586.0
1978-02-05,595.0
1978-02-06,613.0
1978-02-07,634.0
1978-02-08,642.0
1978-02-09,619.0
1978-02-10,625.0
1978-02-11,639.0
1978-02-12,622.0
1978-02-13,612.0
1978-02-14,607.0
1978-02-15,604.0
1978-02-16,616.0
1978-02-17,612.0
1978-02-18,596.0
1978-02-19,606.0
1978-02-20,626.0
1978-02-21,626.0
1978-02-22,592.0
1978-02-23,625.0
1978-02-24,626.0
1978-02-25,631.0
1978-02-26,640.0
1978-02-27,651.0
1978-02-28,682.0
1978-03-01,653.0
1978-03-02,714.0
1978-03-03,752.0
1978-03-04,750.0
1978-03-05,757.0
1978-03-06,785.0
1978-03-07,752.0
1978-03-08,716.0
1978-03-09,677.0
1978-03-10,674.0
1978-03-11,671.0
1978-03-12,674.0
1978-03-13,687.0
1978-03-14,662.0
1978-03-15,645.0
1978-03-16,627.0
1978-03-17,635.0
1978-03-18,638.0
1978-03-19,653.0
1978-03-20,682.0
1978-03-21,656.0
1978-03-22,637.0
1978-03-23,623.0
1978-03-24,587.0
1978-03-25,579.0
1978-03-26,519.0
1978-03-27,541.0
1978-03-28,621.0
1978-03-29,657.0
1978-03-30,734.0
1978-03-31,898.0
1978-04-01,1520.0
1978-04-02,1390.0
1978-04-03,1050.0
1978-04-04,1140.0
1978-04-05,1170.0
1978-04-06,1160.0
1978-04-07,1250.0
1978-04-08,1580.0
1978-04-09,1780.0
1978-04-10,1510.0
1978-04-11,1280.0
1978-04-12,1500.0
1978-04-13,1770.0
1978-04-14,1570.0
1978-04-15,1670.0
1978-04-16,1660.0
1978-04-17,1690.0
1978-04-18,1380.0
1978-04-19,1330.0
1978-04-20,1400.0
1978-04-21,1680.0
1978-04-22,1510.0
1978-04-23,1320.0
1978-04-24,1430.0
1978-04-25,1780.0
1978-04-26,1980.0
1978-04-27,2500.0
1978-04-28,2110.0
1978-04-29,1970.0
1978-04-30,1980.0
1978-05-01,1810.0
1978-05-02,1740.0
1978-05-03,1840.0
1978-05-04,1990.0
1978-05-05,1710.0
1978-05-06,1600.0
1978-05-07,1630.0
1978-05-08,1520.0
1978-05-09,1370.0
1978-05-10,1450.0
1978-05-11,1650.0
1978-05-12,1810.0
1978-05-13,2160.0
1978-05-14,2840.0
1978-05-15,3980.0
1978-05-16,4920.0
1978-05-17,5870.0
1978-05-18,4880.0
1978-05-19,3970.0
1978-05-20,3920.0
1978-05-21,4040.0
1978-05-22,4560.0
1978-05-23,4680.0
1978-05-24,5120.0
1978-05-25,4840.0
1978-05-26,4630.0
1978-05-27,4430.0
1978-05-28,3850.0
1978-05-29,3510.0
1978-05-30,3670.0
1978-05-31,3400.0
1978-06-01,3350.0
1978-06-02,3630.0
1978-06-03,3640.0
1978-06-04,3450.0
1978-06-05,3170.0
1978-06-06,2930.0
1978-06-07,3240.0
1978-06-08,3360.0
1978-06-09,3370.0
1978-06-10,4050.0
1978-06-11,4610.0
1978-06-12,4410.0
1978-06-13,5040.0
1978-06-14,5710.0
1978-06-15,5680.0
1978-06-16,5800.0
1978-06-17,5620.0
1978-06-18,4520.0
1978-06-19,4230.0
1978-06-20,4140.0
1978-06-21,3880.0
1978-06-22,3750.0
1978-06-23,3700.0
1978-06-24,3640.0
1978-06-25,3680.0
1978-06-26,3560.0
1978-06-27,3180.0
1978-06-28,3100.0
1978-06-29,3200.0
1978-06-30,4340.0
1978-07-01,3260.0
1978-07-02,3100.0
1978-07-03,3030.0
1978-07-04,2740.0
1978-07-05,2600.0
1978-07-06,1840.0
1978-07-07,1680.0
1978-07-08,1180.0
1978-07-09,1110.0
1978-07-10,1140.0
1978-07-11,1110.0
1978-07-12,1090.0
1978-07-13,1010.0
1978-07-14,993.0
1978-07-15,840.0
1978-07-16,876.0
1978-07-17,993.0
1978-07-18,1300.0
1978-07-19,1810.0
1978-07-20,1890.0
1978-07-21,1830.0
1978-07-22,1800.0
1978-07-23,1810.0
1978-07-24,1680.0
1978-07-25,1050.0
1978-07-26,949.0
1978-07-27,922.0
1978-07-28,899.0
1978-07-29,887.0
1978-07-30,892.0
1978-07-31,894.0
1978-08-01,425.0
1978-08-02,375.0
1978-08-03,383.0
1978-08-04,359.0
1978-08-05,379.0
1978-08-06,377.0
1978-08-07,370.0
1978-08-08,359.0
1978-08-09,341.0
1978-08-10,685.0
1978-08-11,830.0
1978-08-12,681.0
1978-08-13,644.0
1978-08-14,680.0
1978-08-15,660.0
1978-08-16,660.0
1978-08-17,640.0
1978-08-18,663.0
1978-08-19,642.0
1978-08-20,607.0
1978-08-21,628.0
1978-08-22,876.0
1978-08-23,663.0
1978-08-24,686.0
1978-08-25,759.0
1978-08-26,700.0
1978-08-27,700.0
1978-08-28,700.0
1978-08-29,680.0
1978-08-30,660.0
1978-08-31,720.0
1978-09-01,660.0
1978-09-02,720.0
1978-09-03,680.0
1978-09-04,660.0
1978-09-05,740.0
1978-09-06,780.0
1978-09-07,780.0
1978-09-08,740.0
1978-09-09,790.0
1978-09-10,680.0
1978-09-11,790.0
1978-09-12,770.0
1978-09-13,740.0
1978-09-14,730.0
1978-09-15,800.0
1978-09-16,860.0
1978-09-17,960.0
1978-09-18,880.0
1978-09-19,930.0
1978-09-20,950.0
1978-09-21,1000.0
1978-09-22,1010.0
1978-09-23,1080.0
1978-09-24,1100.0
1978-09-25,1030.0
1978-09-26,1010.0
1978-09-27,1100.0
1978-09-28,1200.0
1978-09-29,1100.0
1978-09-30,1000.0
1978-10-01,940.0
1978-10-02,940.0
1978-10-03,910.0
1978-10-04,710.0
1978-10-05,520.0
1978-10-06,480.0
1978-10-07,470.0
1978-10-08,450.0
1978-10-09,440.0
1978-10-10,430.0
1978-10-11,437.0
1978-10-12,439.0
1978-10-13,440.0
1978-10-14,659.0
1978-10-15,811.0
1978-10-16,817.0
1978-10-17,710.0
1978-10-18,765.0
1978-10-19,860.0
1978-10-20,866.0
1978-10-21,884.0
1978-10-22,1160.0
1978-10-23,1630.0
1978-10-24,1420.0
1978-10-25,1380.0
1978-10-26,1430.0
1978-10-27,1490.0
1978-10-28,1390.0
1978-10-29,1310.0
1978-10-30,1410.0
1978-10-31,1260.0
1978-11-01,1250.0
1978-11-02,1310.0
1978-11-03,1270.0
1978-11-04,1360.0
1978-11-05,1280.0
1978-11-06,1250.0
1978-11-07,641.0
1978-11-08,862.0
1978-11-09,1280.0
1978-11-10,1220.0
1978-11-11,1250.0
1978-11-12,1500.0
1978-11-13,1450.0
1978-11-14,583.0
1978-11-15,482.0
1978-11-16,1230.0
1978-11-17,1270.0
1978-11-18,716.0
1978-11-19,495.0
1978-11-20,491.0
1978-11-21,1360.0
1978-11-22,1390.0
1978-11-23,1390.0
1978-11-24,1400.0
1978-11-25,937.0
1978-11-26,772.0
1978-11-27,790.0
1978-11-28,1320.0
1978-11-29,1270.0
1978-11-30,1310.0
1978-12-01,1390.0
1978-12-02,1540.0
1978-12-03,1430.0
1978-12-04,1410.0
1978-12-05,1520.0
1978-12-06,1720.0
1978-12-07,1860.0
1978-12-08,1850.0
1978-12-09,1840.0
1978-12-10,1810.0
1978-12-11,1650.0
1978-12-12,1700.0
1978-12-13,1470.0
1978-12-14,1600.0
1978-12-15,1810.0
1978-12-16,1940.0
1978-12-17,1970.0
1978-12-18,2050.0
1978-12-19,2150.0
1978-12-20,1950.0
1978-12-21,1850.0
1978-12-22,1830.0
1978-12-23,1990.0
1978-12-24,1960.0
1978-12-25,1920.0
1978-12-26,1960.0
1978-12-27,1930.0
1978-12-28,1960.0
1978-12-29,1970.0
1978-12-30,1900.0
1978-12-31,1960.0
1979-01-01,1930.0
1979-01-02,1910.0
1979-01-03,1970.0
1979-01-04,1930.0
1979-01-05,1970.0
1979-01-06,1960.0
1979-01-07,1980.0
1979-01-08,1910.0
1979-01-09,1940.0
1979-01-10,1930.0
1979-01-11,1930.0
1979-01-12,1930.0
1979-01-13,1940.0
1979-01-14,1920.0
1979-01-15,1940.0
1979-01-16,1960.0
1979-01-17,1920.0
1979-01-18,1930.0
1979-01-19,1900.0
1979-01-20,1900.0
1979-01-21,1930.0
1979-01-22,2020.0
1979-01-23,1960.0
1979-01-24,1940.0
1979-01-25,1940.0
1979-01-26,1940.0
1979-01-27,1930.0
1979-01-28,1910.0
1979-01-29,1930.0
1979-01-30,1900.0
1979-01-31,1980.0
1979-02-01,2020.0
1979-02-02,2000.0
1979-02-03,1980.0
1979-02-04,2020.0
1979-02-05,2080.0
1979-02-06,2200.0
1979-02-07,2200.0
1979-02-08,2180.0
1979-02-09,2140.0
1979-02-10,2210.0
1979-02-11,2100.0
1979-02-12,2100.0
1979-02-13,2100.0
1979-02-14,2200.0
1979-02-15,2400.0
1979-02-16,2600.0
1979-02-17,2680.0
1979-02-18,2700.0
1979-02-19,2700.0
1979-02-20,2800.0
1979-02-21,2800.0
1979-02-22,2800.0
1979-02-23,2800.0
1979-02-24,2800.0
1979-02-25,2780.0
1979-02-26,2800.0
1979-02-27,2800.0
1979-02-28,2780.0
1979-03-01,2870.0
1979-03-02,2790.0
1979-03-03,2790.0
1979-03-04,2790.0
1979-03-05,2800.0
1979-03-06,2800.0
1979-03-07,2800.0
1979-03-08,2880.0
1979-03-09,2900.0
1979-03-10,2900.0
1979-03-11,2900.0
1979-03-12,2900.0
1979-03-13,2900.0
1979-03-14,2800.0
1979-03-15,2800.0
1979-03-16,2800.0
1979-03-17,2830.0
1979-03-18,2820.0
1979-03-19,2790.0
1979-03-20,2720.0
1979-03-21,2800.0
1979-03-22,2840.0
1979-03-23,2710.0
1979-03-24,2660.0
1979-03-25,2670.0
1979-03-26,2740.0
1979-03-27,2730.0
1979-03-28,2750.0
1979-03-29,2730.0
1979-03-30,2570.0
1979-03-31,2630.0
1979-04-01,2650.0
1979-04-02,2580.0
1979-04-03,2560.0
1979-04-04,2590.0
1979-04-05,2540.0
1979-04-06,2540.0
1979-04-07,2590.0
1979-04-08,2700.0
1979-04-09,2800.0
1979-04-10,3060.0
1979-04-11,3010.0
1979-04-12,2850.0
1979-04-13,2980.0
1979-04-14,2890.0
1979-04-15,3060.0
1979-04-16,3410.0
1979-04-17,3840.0
1979-04-18,4250.0
1979-04-19,4820.0
1979-04-20,3680.0
1979-04-21,3600.0
1979-04-22,3840.0
1979-04-23,4570.0
1979-04-24,5390.0
1979-04-25,5000.0
1979-04-26,4570.0
1979-04-27,4490.0
1979-04-28,4610.0
1979-04-29,4440.0
1979-04-30,3620.0
1979-05-01,4050.0
1979-05-02,4610.0
1979-05-03,4280.0
1979-05-04,3870.0
1979-05-05,3930.0
1979-05-06,3990.0
1979-05-07,4300.0
1979-05-08,3750.0
1979-05-09,3410.0
1979-05-10,3340.0
1979-05-11,3550.0
1979-05-12,3440.0
1979-05-13,3420.0
1979-05-14,3220.0
1979-05-15,3630.0
1979-05-16,4050.0
1979-05-17,4830.0
1979-05-18,5460.0
1979-05-19,6770.0
1979-05-20,7020.0
1979-05-21,7210.0
1979-05-22,7120.0
1979-05-23,7480.0
1979-05-24,7400.0
1979-05-25,7350.0
1979-05-26,7520.0
1979-05-27,7990.0
1979-05-28,9230.0
1979-05-29,9080.0
1979-05-30,8500.0
1979-05-31,7200.0
1979-06-01,5790.0
1979-06-02,5410.0
1979-06-03,5410.0
1979-06-04,5560.0
1979-06-05,5750.0
1979-06-06,6230.0
1979-06-07,6490.0
1979-06-08,6910.0
1979-06-09,6080.0
1979-06-10,4930.0
1979-06-11,4540.0
1979-06-12,4610.0
1979-06-13,4440.0
1979-06-14,4450.0
1979-06-15,5240.0
1979-06-16,5300.0
1979-06-17,4870.0
1979-06-18,4500.0
1979-06-19,4110.0
1979-06-20,3540.0
1979-06-21,3160.0
1979-06-22,3180.0
1979-06-23,3360.0
1979-06-24,3420.0
1979-06-25,3350.0
1979-06-26,3220.0
1979-06-27,3100.0
1979-06-28,3060.0
1979-06-29,2970.0
1979-06-30,2930.0
1979-07-01,3290.0
1979-07-02,3260.0
1979-07-03,2960.0
1979-07-04,3360.0
1979-07-05,3230.0
1979-07-06,2830.0
1979-07-07,2950.0
1979-07-08,2800.0
1979-07-09,2700.0
1979-07-10,2580.0
1979-07-11,2360.0
1979-07-12,2280.0
1979-07-13,2180.0
1979-07-14,2040.0
1979-07-15,2010.0
1979-07-16,1980.0
1979-07-17,1920.0
1979-07-18,1510.0
1979-07-19,1450.0
1979-07-20,1350.0
1979-07-21,1270.0
1979-07-22,1310.0
1979-07-23,1340.0
1979-07-24,1270.0
1979-07-25,1190.0
1979-07-26,1150.0
1979-07-27,1130.0
1979-07-28,1110.0
1979-07-29,1100.0
1979-07-30,1100.0
1979-07-31,1060.0
1979-08-01,1080.0
1979-08-02,1080.0
1979-08-03,1060.0
1979-08-04,1070.0
1979-08-05,1040.0
1979-08-06,1060.0
1979-08-07,1040.0
1979-08-08,1030.0
1979-08-09,1060.0
1979-08-10,1080.0
1979-08-11,1080.0
1979-08-12,1080.0
1979-08-13,1080.0
1979-08-14,1100.0
1979-08-15,1100.0
1979-08-16,1150.0
1979-08-17,1150.0
1979-08-18,1150.0
1979-08-19,1150.0
1979-08-20,1200.0
1979-08-21,1200.0
1979-08-22,1200.0
1979-08-23,1200.0
1979-08-24,1200.0
1979-08-25,1150.0
1979-08-26,1150.0
1979-08-27,1130.0
1979-08-28,1100.0
1979-08-29,1100.0
1979-08-30,1090.0
1979-08-31,1080.0
1979-09-01,1080.0
1979-09-02,1100.0
1979-09-03,1080.0
1979-09-04,1000.0
1979-09-05,960.0
1979-09-06,1050.0
1979-09-07,1080.0
1979-09-08,1080.0
1979-09-09,1080.0
1979-09-10,1080.0
1979-09-11,1060.0
1979-09-12,1060.0
1979-09-13,1080.0
1979-09-14,1060.0
1979-09-15,1060.0
1979-09-16,1060.0
1979-09-17,1060.0
1979-09-18,1060.0
1979-09-19,1080.0
1979-09-20,1180.0
1979-09-21,1180.0
1979-09-22,1180.0
1979-09-23,1200.0
1979-09-24,1200.0
1979-09-25,1180.0
1979-09-26,1200.0
1979-09-27,1200.0
1979-09-28,1220.0
1979-09-29,1250.0
1979-09-30,1250.0
1979-10-01,1490.0
1979-10-02,1480.0
1979-10-03,1460.0
1979-10-04,1080.0
1979-10-05,1310.0
1979-10-06,1010.0
1979-10-07,1480.0
1979-10-08,1430.0
1979-10-09,1430.0
1979-10-10,1280.0
1979-10-11,813.0
1979-10-12,813.0
1979-10-13,1230.0
1979-10-14,1370.0
1979-10-15,1480.0
1979-10-16,1460.0
1979-10-17,694.0
1979-10-18,694.0
1979-10-19,710.0
1979-10-20,726.0
1979-10-21,894.0
1979-10-22,858.0
1979-10-23,993.0
1979-10-24,777.0
1979-10-25,759.0
1979-10-26,734.0
1979-10-27,710.0
1979-10-28,694.0
1979-10-29,710.0
1979-10-30,718.0
1979-10-31,742.0
1979-11-01,750.0
1979-11-02,1360.0
1979-11-03,867.0
1979-11-04,656.0
1979-11-05,663.0
1979-11-06,656.0
1979-11-07,678.0
1979-11-08,1370.0
1979-11-09,1580.0
1979-11-10,1580.0
1979-11-11,1720.0
1979-11-12,1850.0
1979-11-13,1730.0
1979-11-14,876.0
1979-11-15,840.0
1979-11-16,837.0
1979-11-17,843.0
1979-11-18,880.0
1979-11-19,929.0
1979-11-20,933.0
1979-11-21,890.0
1979-11-22,860.0
1979-11-23,850.0
1979-11-24,860.0
1979-11-25,890.0
1979-11-26,900.0
1979-11-27,890.0
1979-11-28,920.0
1979-11-29,1660.0
1979-11-30,1690.0
1979-12-01,1620.0
1979-12-02,2000.0
1979-12-03,2120.0
1979-12-04,2120.0
1979-12-05,2170.0
1979-12-06,2120.0
1979-12-07,2080.0
1979-12-08,2100.0
1979-12-09,2100.0
1979-12-10,2100.0
1979-12-11,2080.0
1979-12-12,2000.0
1979-12-13,2000.0
1979-12-14,2000.0
1979-12-15,2020.0
1979-12-16,2020.0
1979-12-17,2020.0
1979-12-18,2040.0
1979-12-19,2040.0
1979-12-20,2020.0
1979-12-21,2040.0
1979-12-22,2040.0
1979-12-23,2020.0
1979-12-24,2020.0
1979-12-25,2040.0
1979-12-26,2040.0
1979-12-27,2080.0
1979-12-28,2020.0
1979-12-29,2040.0
1979-12-30,2040.0
1979-12-31,2050.0
1980-01-01,2040.0
1980-01-02,2060.0
1980-01-03,2060.0
1980-01-04,2060.0
1980-01-05,2050.0
1980-01-06,2080.0
1980-01-07,2070.0
1980-01-08,2060.0
1980-01-09,2080.0
1980-01-10,2120.0
1980-01-11,2140.0
1980-01-12,2160.0
1980-01-13,2300.0
1980-01-14,2200.0
1980-01-15,2200.0
1980-01-16,1800.0
1980-01-17,1350.0
1980-01-18,1700.0
1980-01-19,2150.0
1980-01-20,2100.0
1980-01-21,2100.0
1980-01-22,2000.0
1980-01-23,1900.0
1980-01-24,2000.0
1980-01-25,2100.0
1980-01-26,2000.0
1980-01-27,2100.0
1980-01-28,2000.0
1980-01-29,2000.0
1980-01-30,2000.0
1980-01-31,2000.0
1980-02-01,2000.0
1980-02-02,2000.0
1980-02-03,2050.0
1980-02-04,2000.0
1980-02-05,2100.0
1980-02-06,2050.0
1980-02-07,2050.0
1980-02-08,2050.0
1980-02-09,2000.0
1980-02-10,2000.0
1980-02-11,2000.0
1980-02-12,2000.0
1980-02-13,2000.0
1980-02-14,2000.0
1980-02-15,2100.0
1980-02-16,2100.0
1980-02-17,2000.0
1980-02-18,2100.0
1980-02-19,2200.0
1980-02-20,2150.0
1980-02-21,2100.0
1980-02-22,2100.0
1980-02-23,2100.0
1980-02-24,2000.0
1980-02-25,2000.0
1980-02-26,2050.0
1980-02-27,2000.0
1980-02-28,2000.0
1980-02-29,2000.0
1980-03-01,2000.0